Torna al catalogo

IRIDIUM 33 DEB

AttivoPO
NORAD 34508·DEBRIS·🇺🇸 United States

Lanciato Sep 14, 1997 da Baikonur Cosmodrome

Loading…

Prossimi Passaggi (prossime 24 ore)

TLE

AggiornatoSource: Space-Track

Epoca: Sep 14, 2026, 04:20 UTC

1 34508U 97051GZ  26257.18071707  .00001736  00000-0  53245-3 0  9994
2 34508  86.3751 345.6701 0062022 349.7291  10.2636 14.40080436912713

Traccia IRIDIUM 33 DEB in tempo reale con AllMySat

Download on the App Store